Regional Weather Roundup
Issued by NWS Upton, NY

Current Version | Previous Version | Graphics & Text | Print | Product List | Glossary Off
Versions: 1 2 3 4 5 6 7 8 9 10 11 12 13 14 15 16 17 18 19 20 21 22 23 24 25 26 27 28 29 30 31 32 33 34 35 36 37 38 39 40 41 42 43 44 45 46 47 48 49 50
000 ASUS41 KOKX 010904 RWROKX REGIONAL WEATHER ROUNDUP NATIONAL WEATHER SERVICE NEW YORK NY 500 AM EDT SAT AUG 01 2015 NOTE: "FAIR" INDICATES FEW OR NO CLOUDS BELOW 12,000 FEET WITH NO SIGNIFICANT WEATHER AND/OR OBSTRUCTIONS TO VISIBILITY. NYZ071-072-176-178-NJZ106-104-011000- NEW YORK CITY METRO AREA CITY SKY/WX TMP DP RH WIND PRES REMARKS CENTRAL PARK CLEAR 77 59 53 MISG 29.82S LAGUARDIA APRT PTCLDY 79 58 48 SW9G17 29.78S KENNEDY INTL PTCLDY 75 64 68 SW12 29.80F NEWARK/LIBERTY PTCLDY 74 60 61 SW9 29.79S BRNX BOT. GARD N/A 77 59 53 W20 29.80R TETERBORO CLEAR 73 59 61 CALM 29.77F $$ NYZ177-179-078>081-011000- LONG ISLAND NEW YORK CITY SKY/WX TMP DP RH WIND PRES REMARKS FARMINGDALE CLEAR 73 63 70 SW5 29.79F ISLIP PTCLDY 70 63 78 SW6 29.77F SHIRLEY CLEAR 73 65 75 SW6 29.79F WESTHAMPTON MOCLDY 62 59 90 CALM 29.80F MONTAUK POINT N/A 75 63 66 SW3 29.79F $$ NYZ052-065-067-011000- HUDSON VALLEY CITY SKY/WX TMP DP RH WIND PRES REMARKS WHITE PLAINS PTCLDY 73 59 61 W5 29.78F NEWBURGH NOT AVBL MONTGOMERY MOCLDY 65 61 87 W3 29.78F POUGHKEEPSIE CLEAR 64 60 87 CALM 29.76F ALBANY MOCLDY 67 60 78 CALM 29.75S $$ NJZ001-105-106-008-010-013-015-019>022-104-011000- NEW JERSEY CITY SKY/WX TMP DP RH WIND PRES REMARKS NEWARK/LIBERTY PTCLDY 74 60 61 SW9 29.79S TETERBORO CLEAR 73 59 61 CALM 29.77F CALDWELL PTCLDY 71 59 65 CALM 29.80S MORRISTOWN PTCLDY 64 61 88 CALM 29.80F SOMERVILLE CLEAR 62 60 93 CALM 29.79F SUSSEX CLEAR 61 59 93 CALM 29.81S ANDOVER N/A 62 61 96 S3 29.82S TRENTON CLEAR 72 61 68 W3 29.81F MILLVILLE CLEAR 72 66 81 W6 29.84F ATLANTIC CITY CLEAR 75 66 73 SW8 29.83F WRIGHTSTOWN NOT AVBL TOMS RIVER N/A 68 63 83 W5 29.82F BELMAR CLEAR 70 59 68 W5 29.81F $$ PAZ047>061-062-071-011000- EASTERN PENNSYLVANIA CITY SKY/WX TMP DP RH WIND PRES REMARKS PHILADELPHIA PTCLDY 76 66 71 SW10 29.83S ALLENTOWN CLEAR 64 61 90 CALM 29.82S SCRANTON MOCLDY 69 61 75 W5 29.82S $$ CTZ002-004>006-009-010-012-RIZ004-006-007-MAZ004-011-015-011000- SOUTHERN NEW ENGLAND IN CT CITY SKY/WX TMP DP RH WIND PRES REMARKS BRADLEY INTL PTCLDY 67 59 75 S3 29.75F HARTFORD MOCLDY 69 60 73 S5 29.76S DANBURY PTCLDY 70 58 65 VRB3 29.80S WTRBRY/OXFORD PTCLDY 64 55 72 CALM 29.81S BRIDGEPORT CLEAR 73 65 75 SW5 29.77F MERIDEN PTCLDY 63 59 87 CALM 29.77F NEW HAVEN CLEAR 66 64 93 CALM 29.78S CHESTER FAIR 70 64 83 SW3 29.80S GROTON PTCLDY 64 62 93 CALM 29.77F WILLIMANTIC CLEAR 61 58 90 CALM 29.78S IN RI CITY SKY/WX TMP DP RH WIND PRES REMARKS PROVIDENCE CLEAR 65 61 87 CALM 29.77F BLOCK ISLAND N/A 70 66 88 W9 29.79S WESTERLY CLEAR 63 61 93 CALM 29.78F IN MA CITY SKY/WX TMP DP RH WIND PRES REMARKS BOSTON PTCLDY 69 58 67 S5 29.75F WORCESTER PTCLDY 67 54 63 SW13 29.78F WESTFIELD CLEAR 63 60 90 CALM 29.76S PROVINCETOWN CLEAR 68 61 77 SW6 29.77S NANTUCKET CLEAR 67 65 93 SW5 29.78S FOG $$ ANZ330-335-338-340-345-350-353-355-011000- COASTAL MARINE OBSERVATIONS STATION/POSITION TIME SKY/WX TEMP WIND PRES VSBY WAVE AIR SEA DIR/SP/G HT/PER (UTC) (F) (DEG/KT/KT) (MB) (MI) (FT/S) NY HARB ENTRANCE 0750 76 76 240/ 16/ 17 1008.8 3/ 7 4S FIRE IS NOT AVBL 20S FIRE ISLAND 0750 77 75 230/ 10/ 10 1009.2 4/ 9 GREAT SOUTH BAY 0800 78 81 270/ 12/ 14 N/A 23SW MTP 0850 75 73 240/ 8/ 8 1008.2 3/ 8 HUDSON CANYON NOT AVBL KINGS POINT 0800 79 70 220/ 5/ 6 1008.0 EXECUTION ROCKS 0800 74 200/ 4/ 6 N/A CENTRAL LI SOUND NOT AVBL EASTERN LI SOUND 0800 69 68 260/ 4/ 4 N/A ROBBINS REEF 0800 77 250/ 14/ 17 1007.7 $$ >>>>>>>>>>>>>>>>>>>>>>>>>>>> KEY <<<<<<<<<<<<<<<<<<<<<<<<<<< > < > SKY/WX - SKY CONDITION/PRESENT WEATHER < > TMP - TEMPERATURE IN FAHRENHEIT < > DP - DEWPOINT IN FAHRENHEIT < > RH - RELATIVE HUMIDITY IN PERCENT < > WIND - DIRECTION AND SPEED IN MPH < > PRES - MEAN SEA LEVEL PRESSURE IN INCHES OF HG < > WCI - WIND CHILL INDEX < > VSB - VISIBILITY IN MILES < > HX - HEAT INDEX < > TC - TEMPERATURE IN CELSIUS < > VRB - VARIABLE WIND DIRECTION < > < >>>>>>>>>>>>>>>>>>>>>>>>>>>> KEY <<<<<<<<<<<<<<<<<<<<<<<<<<<

USA.gov is the U.S. government's official web portal to all federal, state and local government web resources and services.